Погода в Асмэре

Эритрея     15°19′48″N   38°55′56″E
темп.,
°C
ветер,
м/с
пор.,
м/с
влажн.,
%
обл.,
%
осадки,
мм/ч
давл.,
гПа
погр.,
м
28 июня, вт
вт2800:00+22ссз015356 0.0 101219
03:00+21зсз12569 0.0 101119
06:00+20з22558 0.0 101226
09:00+25с682799 0.0 10121384
12:00+28ссв6625100 0.0 10113358
15:00+27ссв882657 0.0 10092928
18:00+25ссз1340100 0.3 10111303
21:00+21зюз2261100 0.8 1013195
29 июня, ср
ср2900:00+20зюз3366100 0.6 1014147
03:00+19юз3462100 0.6 1013118
06:00+19зюз335770 0.0 101360
09:00+23ююз2340100 0.0 1013565
12:00+25сз4635100 0.3 10122339
15:00+26с463499 0.8 10102221
18:00+23ссз445036 0.7 10111142
21:00+21зюз4559100 1.6 1013286
30 июня, чт
чт3000:00+19з457192 0.4 1013186
03:00+17зюз458230 0.7 1012220
06:00+17зюз45847 0.1 1013133
09:00+22з455490 0.2 1012598
12:00+25сз5639100 0.6 10112251
15:00+25сз674679 2.4 10102121
18:00+21зсз666458 2.0 1012633
21:00+20з456644 3.4 1013250
1 июля, пт
пт100:00+19зюз577139 0.1 1013352
03:00+18зюз457378 0.2 1012201
06:00+17зюз34796 0.0 1013134
09:00+23зсз454893 0.1 1013822
12:00+24зсз554899 0.3 10121549
15:00+24зсз664684 2.4 10111295
18:00+21зсз656075 2.7 1012537
21:00+19з5671100 3.2 1014435
2 июля, сб
сб200:00+19з4770100 0.4 1014324
03:00+19зюз4569100 0.6 1013207
06:00+17зюз3480100 0.2 1014153
09:00+21з4458100 0.6 1014451
12:00+26зсз353394 0.2 10122462
15:00+21з5457100 1.8 1013395
18:00+22зсз445428 1.5 1012549
21:00+19з5676100 2.6 1015333